,,Stat6,,Stat2,,Stat8,,Stat9,,Stat10,,Wind1,,Wind1,
time,status,PA1M_AVG,status,PR1M_SUM,status,RH1M_AVG,status,SR1M_AVG,status,TA1M_AVG,status,W1dAve1m,status,W1sAve1m,
2007-10-05, 00:00:00,VALID,917.503,VALID,0,VALID,100,VALID,-0.0169808,VALID,20.4386,VALID,29,VALID,0,
2007-10-05, 00:01:00,VALID,917.488,VALID,0,VALID,100,VALID,0.0169808,VALID,20.4319,VALID,29,VALID,0,
2007-10-05, 00:02:00,VALID,917.478,VALID,0,VALID,100,VALID,0,VALID,20.3794,VALID,29,VALID,0.0160256,
2007-10-05, 00:03:00,VALID,917.471,VALID,0,VALID,100,VALID,0.0169808,VALID,20.3537,VALID,29,VALID,0.00816761,
2007-10-05, 00:04:00,VALID,917.452,VALID,0,VALID,100,VALID,0.0339617,VALID,20.324,VALID,47,VALID,0.125163,
2007-10-05, 00:05:00,VALID,917.452,VALID,0,VALID,100,VALID,0,VALID,20.3021,VALID,84,VALID,0.0990234,
2007-10-05, 00:06:00,VALID,917.459,VALID,0,VALID,100,VALID,0,VALID,20.2861,VALID,84,VALID,0,
2007-10-05, 00:07:00,VALID,917.458,VALID,0,VALID,100,VALID,-0.0849042,VALID,20.2809,VALID,84,VALID,0,
2007-10-05, 00:08:00,VALID,917.475,VALID,0,VALID,100,VALID,-0.0679233,VALID,20.2774,VALID,84,VALID,0,
2007-10-05, 00:09:00,VALID,917.477,VALID,0,VALID,100,VALID,-0.0849042,VALID,20.2642,VALID,84,VALID,0,
2007-10-05, 00:10:00,VALID,917.484,VALID,0,VALID,100,VALID,-0.0679233,VALID,20.2607,VALID,77,VALID,0,
2007-10-05, 00:11:00,VALID,917.473,VALID,0,VALID,100,VALID,-0.101885,VALID,20.2744,VALID,69,VALID,0.150391,
2007-10-05, 00:12:00,VALID,917.477,VALID,0,VALID,100,VALID,-0.118866,VALID,20.2941,VALID,67,VALID,0.442472,
2007-10-05, 00:13:00,VALID,917.467,VALID,0,VALID,100,VALID,-0.118866,VALID,20.3201,VALID,67,VALID,0.331395,
2007-10-05, 00:14:00,VALID,917.467,VALID,0,VALID,100,VALID,-0.101885,VALID,20.3263,VALID,67,VALID,0.0826172,
2007-10-05, 00:15:00,VALID,917.454,VALID,0,VALID,100,VALID,-0.101885,VALID,20.2944,VALID,67,VALID,0.00223214,
2007-10-05, 00:16:00,VALID,917.433,VALID,0,VALID,100,VALID,-0.135847,VALID,20.2422,VALID,67,VALID,0.32919,
2007-10-05, 00:17:00,VALID,917.41,VALID,0,VALID,100,VALID,-0.118866,VALID,20.2035,VALID,74,VALID,0.61814,
2007-10-05, 00:18:00,VALID,917.385,VALID,0,VALID,100,VALID,-0.118866,VALID,20.1868,VALID,78,VALID,0.743278,
2007-10-05, 00:19:00,VALID,917.363,VALID,0,VALID,100,VALID,-0.101885,VALID,20.1905,VALID,78,VALID,0.550347,
2007-10-05, 00:20:00,VALID,917.356,VALID,0,VALID,100,VALID,-0.118866,VALID,20.207,VALID,78,VALID,0.334135,
2007-10-05, 00:21:00,VALID,917.349,VALID,0,VALID,100,VALID,-0.118866,VALID,20.2003,VALID,78,VALID,0.015439,
2007-10-05, 00:22:00,VALID,917.33,VALID,0,VALID,100,VALID,-0.118866,VALID,20.2168,VALID,78,VALID,0,
2007-10-05, 00:23:00,VALID,917.313,VALID,0,VALID,100,VALID,-0.118866,VALID,20.216,VALID,78,VALID,0,
2007-10-05, 00:24:00,VALID,917.297,VALID,0,VALID,100,VALID,-0.118866,VALID,20.2495,VALID,78,VALID,0,
2007-10-05, 00:25:00,VALID,917.297,VALID,0,VALID,100,VALID,-0.118866,VALID,20.2749,VALID,78,VALID,0,
2007-10-05, 00:26:00,VALID,917.296,VALID,0,VALID,100,VALID,-0.135847,VALID,20.2944,VALID,78,VALID,0,
2007-10-05, 00:27:00,VALID,917.291,VALID,0,VALID,100,VALID,-0.0849042,VALID,20.3101,VALID,78,VALID,0,
2007-10-05, 00:28:00,VALID,917.296,VALID,0,VALID,100,VALID,-0.135847,VALID,20.3106,VALID,78,VALID,0,
2007-10-05, 00:29:00,VALID,917.315,VALID,0,VALID,100,VALID,-0.118866,VALID,20.3141,VALID,78,VALID,0,
2007-10-05, 00:30:00,VALID,917.321,VALID,0,VALID,100,VALID,-0.101885,VALID,20.3304,VALID,78,VALID,0,
2007-10-05, 00:31:00,VALID,917.323,VALID,0,VALID,100,VALID,-0.118866,VALID,20.3431,VALID,78,VALID,0,
2007-10-05, 00:32:00,VALID,917.32,VALID,0,VALID,100,VALID,-0.101885,VALID,20.392,VALID,78,VALID,0,
2007-10-05, 00:33:00,VALID,917.296,VALID,0,VALID,100,VALID,-0.118866,VALID,20.4142,VALID,78,VALID,0,
2007-10-05, 00:34:00,VALID,917.273,VALID,0,VALID,100,VALID,-0.118866,VALID,20.4407,VALID,78,VALID,0,
2007-10-05, 00:35:00,VALID,917.238,VALID,0,VALID,100,VALID,-0.101885,VALID,20.4372,VALID,78,VALID,0,
2007-10-05, 00:36:00,VALID,917.225,VALID,0,VALID,100,VALID,-0.118866,VALID,20.4434,VALID,78,VALID,0,
2007-10-05, 00:37:00,VALID,917.23,VALID,0,VALID,100,VALID,-0.0509425,VALID,20.4424,VALID,78,VALID,0.0375381,
2007-10-05, 00:38:00,VALID,917.234,VALID,0,VALID,100,VALID,0.0169808,VALID,20.4384,VALID,78,VALID,0,
2007-10-05, 00:39:00,VALID,917.235,VALID,0,VALID,100,VALID,0,VALID,20.4386,VALID,78,VALID,0,
2007-10-05, 00:40:00,VALID,917.222,VALID,0,VALID,100,VALID,0.0169808,VALID,20.4578,VALID,78,VALID,0.0403646,
2007-10-05, 00:41:00,VALID,917.213,VALID,0,VALID,100,VALID,0,VALID,20.5006,VALID,78,VALID,0.300347,
2007-10-05, 00:42:00,VALID,917.198,VALID,0,VALID,100,VALID,-0.0169808,VALID,20.5098,VALID,77,VALID,0.438565,
2007-10-05, 00:43:00,VALID,917.201,VALID,0,VALID,100,VALID,0.0169808,VALID,20.5068,VALID,77,VALID,0.117188,
2007-10-05, 00:44:00,VALID,917.171,VALID,0,VALID,100,VALID,0,VALID,20.4968,VALID,77,VALID,0.110795,
2007-10-05, 00:45:00,VALID,917.164,VALID,0,VALID,100,VALID,0.0509425,VALID,20.4898,VALID,77,VALID,0.175223,
2007-10-05, 00:46:00,VALID,917.152,VALID,0,VALID,100,VALID,0,VALID,20.5,VALID,74,VALID,0,
2007-10-05, 00:47:00,VALID,917.147,VALID,0,VALID,100,VALID,0.0339617,VALID,20.4998,VALID,69,VALID,0,
2007-10-05, 00:48:00,VALID,917.127,VALID,0,VALID,100,VALID,0.0339617,VALID,20.503,VALID,69,VALID,0,
2007-10-05, 00:49:00,VALID,917.1,VALID,0,VALID,100,VALID,0,VALID,20.4868,VALID,69,VALID,0.0128906,
2007-10-05, 00:50:00,VALID,917.091,VALID,0,VALID,100,VALID,0,VALID,20.4676,VALID,69,VALID,0.161399,
2007-10-05, 00:51:00,VALID,917.063,VALID,0,VALID,100,VALID,0,VALID,20.4641,VALID,69,VALID,0,
2007-10-05, 00:52:00,VALID,917.053,VALID,0,VALID,100,VALID,-0.0509425,VALID,20.4424,VALID,69,VALID,0,
2007-10-05, 00:53:00,VALID,917.043,VALID,0,VALID,100,VALID,-0.101885,VALID,20.4534,VALID,69,VALID,0.323828,
2007-10-05, 00:54:00,VALID,917.025,VALID,0,VALID,100,VALID,-0.101885,VALID,20.4299,VALID,69,VALID,0.780887,
2007-10-05, 00:55:00,VALID,917.01,VALID,0,VALID,100,VALID,-0.135847,VALID,20.4175,VALID,69,VALID,0.699505,
2007-10-05, 00:56:00,VALID,917.005,VALID,0,VALID,100,VALID,-0.101885,VALID,20.4112,VALID,69,VALID,0.517045,
2007-10-05, 00:57:00,VALID,916.988,VALID,0,VALID,100,VALID,-0.118866,VALID,20.391,VALID,70,VALID,0.547619,
2007-10-05, 00:58:00,VALID,916.97,VALID,0,VALID,100,VALID,-0.101885,VALID,20.398,VALID,70,VALID,0.247461,
2007-10-05, 00:59:00,VALID,916.956,VALID,0,VALID,100,VALID,-0.101885,VALID,20.3942,VALID,70,VALID,0.00552591,
2007-10-05, 01:00:00,VALID,916.937,VALID,0,VALID,100,VALID,-0.0849042,VALID,20.3975,VALID,70,VALID,0.00334821,
2007-10-05, 01:01:00,VALID,916.925,VALID,0,VALID,100,VALID,-0.0849042,VALID,20.4007,VALID,70,VALID,0.0125762,
2007-10-05, 01:02:00,VALID,916.905,VALID,0,VALID,100,VALID,-0.101885,VALID,20.3845,VALID,70,VALID,0.225836,
2007-10-05, 01:03:00,VALID,916.907,VALID,0,VALID,100,VALID,-0.101885,VALID,20.3526,VALID,107,VALID,0.596418,
2007-10-05, 01:04:00,VALID,916.907,VALID,0,VALID,100,VALID,-0.0849042,VALID,20.3358,VALID,113,VALID,0.328303,
2007-10-05, 01:05:00,VALID,916.91,VALID,0,VALID,100,VALID,-0.101885,VALID,20.3326,VALID,121,VALID,0.265234,
2007-10-05, 01:06:00,VALID,916.903,VALID,0,VALID,100,VALID,-0.101885,VALID,20.3366,VALID,162,VALID,0.646443,
2007-10-05, 01:07:00,VALID,916.895,VALID,0,VALID,100,VALID,-0.101885,VALID,20.2971,VALID,163,VALID,0.68423,
2007-10-05, 01:08:00,VALID,916.891,VALID,0,VALID,100,VALID,-0.101885,VALID,20.2649,VALID,157,VALID,0.416481,
2007-10-05, 01:09:00,VALID,916.882,VALID,0,VALID,100,VALID,-0.101885,VALID,20.2425,VALID,157,VALID,0.438565,
2007-10-05, 01:10:00,VALID,916.889,VALID,0,VALID,100,VALID,-0.135847,VALID,20.2065,VALID,157,VALID,0.288681,
2007-10-05, 01:11:00,VALID,916.861,VALID,0,VALID,100,VALID,-0.118866,VALID,20.1803,VALID,157,VALID,0.18843,
2007-10-05, 01:12:00,VALID,916.835,VALID,0,VALID,100,VALID,-0.101885,VALID,20.1514,VALID,157,VALID,0.0891335,
2007-10-05, 01:13:00,VALID,916.813,VALID,0,VALID,100,VALID,-0.101885,VALID,20.1286,VALID,157,VALID,0.211285,
2007-10-05, 01:14:00,VALID,916.794,VALID,0,VALID,100,VALID,-0.118866,VALID,20.0957,VALID,156,VALID,0.454397,
2007-10-05, 01:15:00,VALID,916.768,VALID,0,VALID,100,VALID,-0.101885,VALID,20.0695,VALID,155,VALID,0.276758,
2007-10-05, 01:16:00,VALID,916.747,VALID,0,VALID,100,VALID,-0.101885,VALID,20.0695,VALID,154,VALID,0.236979,
2007-10-05, 01:17:00,VALID,916.735,VALID,0,VALID,100,VALID,-0.101885,VALID,20.0899,VALID,150,VALID,0.326758,
2007-10-05, 01:18:00,VALID,916.692,VALID,0,VALID,100,VALID,-0.101885,VALID,20.0864,VALID,156,VALID,0.501116,
2007-10-05, 01:19:00,VALID,916.669,VALID,0,VALID,100,VALID,-0.101885,VALID,20.0889,VALID,156,VALID,0.659226,
2007-10-05, 01:20:01,VALID,916.631,VALID,0,VALID,100,VALID,-0.118866,VALID,20.1094,VALID,156,VALID,0.638445,
2007-10-05, 01:21:00,VALID,916.608,VALID,0,VALID,100,VALID,-0.101885,VALID,20.0992,VALID,135,VALID,0.841025,
2007-10-05, 01:22:01,VALID,916.578,VALID,0,VALID,100,VALID,-0.0339617,VALID,20.0819,VALID,128,VALID,1.04106,
2007-10-05, 01:23:00,VALID,916.552,VALID,0,VALID,100,VALID,0,VALID,20.0754,VALID,126,VALID,0.676525,
2007-10-05, 01:24:00,VALID,916.527,VALID,0,VALID,100,VALID,-0.0339617,VALID,20.062,VALID,145,VALID,0.827943,
2007-10-05, 01:25:00,VALID,916.508,VALID,0,VALID,100,VALID,-0.0339617,VALID,20.0719,VALID,140,VALID,0.429869,
2007-10-05, 01:26:00,VALID,916.49,VALID,0,VALID,100,VALID,-0.0169808,VALID,20.0625,VALID,146,VALID,0.440168,
2007-10-05, 01:27:00,VALID,916.5,VALID,0,VALID,100,VALID,-0.0169808,VALID,20.0525,VALID,165,VALID,0.595022,
2007-10-05, 01:28:00,VALID,916.51,VALID,0,VALID,100,VALID,-0.0169808,VALID,20.0625,VALID,167,VALID,0.208097,
2007-10-05, 01:29:00,VALID,916.522,VALID,0,VALID,100,VALID,-0.0169808,VALID,20.0555,VALID,167,VALID,0,
2007-10-05, 01:30:00,VALID,916.533,VALID,0,VALID,100,VALID,-0.0169808,VALID,20.0522,VALID,167,VALID,0,
2007-10-05, 01:31:01,VALID,916.533,VALID,0,VALID,100,VALID,-0.0169808,VALID,20.0392,VALID,167,VALID,0.0514915,
2007-10-05, 01:32:00,VALID,916.535,VALID,0,VALID,100,VALID,-0.0169808,VALID,19.9906,VALID,141,VALID,0.405556,
2007-10-05, 01:33:00,VALID,916.521,VALID,0,VALID,100,VALID,-0.0169808,VALID,19.8897,VALID,133,VALID,0.673931,
2007-10-05, 01:34:00,VALID,916.539,VALID,0,VALID,100,VALID,0.0169808,VALID,19.8311,VALID,132,VALID,0.537574,
2007-10-05, 01:35:00,VALID,916.532,VALID,0,VALID,100,VALID,-0.0169808,VALID,19.8054,VALID,131,VALID,0.0232677,
2007-10-05, 01:36:00,VALID,916.551,VALID,0,VALID,100,VALID,-0.0849042,VALID,19.8039,VALID,131,VALID,0,
2007-10-05, 01:37:01,VALID,916.562,VALID,0,VALID,100,VALID,-0.0849042,VALID,19.7842,VALID,131,VALID,0,
2007-10-05, 01:38:00,VALID,916.59,VALID,0,VALID,100,VALID,-0.101885,VALID,19.7804,VALID,131,VALID,0,
2007-10-05, 01:39:00,VALID,916.602,VALID,0,VALID,100,VALID,-0.118866,VALID,19.7969,VALID,131,VALID,0,
2007-10-05, 01:40:01,VALID,916.615,VALID,0,VALID,100,VALID,-0.101885,VALID,19.8229,VALID,131,VALID,0,
2007-10-05, 01:41:00,VALID,916.628,VALID,0,VALID,100,VALID,-0.0849042,VALID,19.8585,VALID,131,VALID,0,
2007-10-05, 01:42:00,VALID,916.618,VALID,0,VALID,100,VALID,-0.118866,VALID,19.875,VALID,131,VALID,0,
2007-10-05, 01:43:00,VALID,916.617,VALID,0,VALID,100,VALID,-0.101885,VALID,19.8715,VALID,131,VALID,0,
2007-10-05, 01:44:00,VALID,916.593,VALID,0,VALID,100,VALID,-0.0679233,VALID,19.8648,VALID,131,VALID,0.0270579,
2007-10-05, 01:45:01,VALID,916.599,VALID,0,VALID,100,VALID,-0.0849042,VALID,19.8715,VALID,131,VALID,0.641369,
2007-10-05, 01:46:01,VALID,916.595,VALID,0,VALID,100,VALID,-0.0339617,VALID,19.8905,VALID,131,VALID,0.559482,
2007-10-05, 01:47:00,VALID,916.595,VALID,0,VALID,100,VALID,-0.101885,VALID,19.904,VALID,135,VALID,0.334535,
2007-10-05, 01:48:01,VALID,916.603,VALID,0,VALID,100,VALID,-0.101885,VALID,19.9332,VALID,141,VALID,0.202939,
2007-10-05, 01:49:00,VALID,916.621,VALID,0,VALID,100,VALID,-0.0849042,VALID,19.9459,VALID,128,VALID,0.402158,
2007-10-05, 01:50:01,VALID,916.639,VALID,0,VALID,100,VALID,-0.0679233,VALID,19.9559,VALID,126,VALID,0.350675,
2007-10-05, 01:51:00,VALID,916.649,VALID,0,VALID,100,VALID,-0.0509425,VALID,19.9684,VALID,127,VALID,0.00710227,
2007-10-05, 01:52:00,VALID,916.646,VALID,0,VALID,100,VALID,0,VALID,19.9836,VALID,127,VALID,0.051669,
2007-10-05, 01:53:00,VALID,916.628,VALID,0,VALID,100,VALID,0,VALID,19.9866,VALID,127,VALID,0.210392,
2007-10-05, 01:54:00,VALID,916.597,VALID,0,VALID,100,VALID,0.0339617,VALID,19.9833,VALID,127,VALID,0.22793,
2007-10-05, 01:55:00,VALID,916.563,VALID,0,VALID,100,VALID,0.0339617,VALID,19.9801,VALID,127,VALID,0.428779,
2007-10-05, 01:56:01,VALID,916.522,VALID,0,VALID,100,VALID,0.0509425,VALID,19.9703,VALID,127,VALID,0.274826,
2007-10-05, 01:57:01,VALID,916.493,VALID,0,VALID,100,VALID,0.0169808,VALID,19.9836,VALID,127,VALID,0.229048,
2007-10-05, 01:58:00,VALID,916.47,VALID,0,VALID,100,VALID,0.0169808,VALID,19.9831,VALID,163,VALID,0.654948,
2007-10-05, 01:59:01,VALID,916.471,VALID,0,VALID,100,VALID,0.0339617,VALID,19.9866,VALID,177,VALID,0.802202,
2007-10-05, 02:00:00,VALID,916.462,VALID,0,VALID,100,VALID,0,VALID,19.9901,VALID,174,VALID,0.771439,
2007-10-05, 02:01:00,VALID,916.465,VALID,0,VALID,100,VALID,0.0169808,VALID,19.9966,VALID,190,VALID,0.426153,
2007-10-05, 02:02:01,VALID,916.479,VALID,0,VALID,100,VALID,0.0339617,VALID,20.0158,VALID,208,VALID,0.391352,
2007-10-05, 02:03:00,VALID,916.482,VALID,0,VALID,100,VALID,0.0339617,VALID,20.032,VALID,190,VALID,0.425877,
2007-10-05, 02:04:01,VALID,916.489,VALID,0,VALID,100,VALID,0.0169808,VALID,20.0644,VALID,189,VALID,0.366667,
2007-10-05, 02:05:00,VALID,916.481,VALID,0,VALID,100,VALID,0,VALID,20.0839,VALID,150,VALID,0.617543,
2007-10-05, 02:06:01,VALID,916.477,VALID,0,VALID,100,VALID,0.0169808,VALID,20.0904,VALID,121,VALID,0.286585,
2007-10-05, 02:07:00,VALID,916.475,VALID,0,VALID,100,VALID,0.0509425,VALID,20.1001,VALID,121,VALID,0.0375744,
2007-10-05, 02:08:01,VALID,916.461,VALID,0,VALID,100,VALID,0.0169808,VALID,20.1231,VALID,121,VALID,0.0291016,
2007-10-05, 02:09:01,VALID,916.454,VALID,0,VALID,100,VALID,0,VALID,20.1328,VALID,121,VALID,0.306141,
2007-10-05, 02:10:01,VALID,916.454,VALID,0,VALID,100,VALID,0,VALID,20.1361,VALID,121,VALID,0.312318,
2007-10-05, 02:11:01,VALID,916.455,VALID,0,VALID,100,VALID,-0.0169808,VALID,20.1493,VALID,138,VALID,0.406783,
2007-10-05, 02:12:01,VALID,916.473,VALID,0,VALID,100,VALID,0,VALID,20.1458,VALID,140,VALID,0.167333,
2007-10-05, 02:13:01,VALID,916.484,VALID,0,VALID,100,VALID,0,VALID,20.1456,VALID,140,VALID,0.0251736,
2007-10-05, 02:14:01,VALID,916.475,VALID,0,VALID,100,VALID,0.0339617,VALID,20.1585,VALID,140,VALID,0,
2007-10-05, 02:15:01,VALID,916.461,VALID,0,VALID,100,VALID,0.0169808,VALID,20.1615,VALID,140,VALID,0,
2007-10-05, 02:16:00,VALID,916.438,VALID,0,VALID,100,VALID,0,VALID,20.152,VALID,140,VALID,0,
2007-10-05, 02:17:01,VALID,916.402,VALID,0,VALID,100,VALID,0.0169808,VALID,20.1555,VALID,140,VALID,0,
2007-10-05, 02:18:01,VALID,916.395,VALID,0,VALID,100,VALID,0,VALID,20.159,VALID,140,VALID,0,
2007-10-05, 02:19:01,VALID,916.385,VALID,0,VALID,100,VALID,0.0509425,VALID,20.1555,VALID,140,VALID,0,
2007-10-05, 02:20:01,VALID,916.398,VALID,0,VALID,100,VALID,0,VALID,20.1456,VALID,140,VALID,0,
2007-10-05, 02:21:01,VALID,916.412,VALID,0,VALID,100,VALID,0,VALID,20.1496,VALID,140,VALID,0,
2007-10-05, 02:22:01,VALID,916.409,VALID,0,VALID,100,VALID,0,VALID,20.1326,VALID,140,VALID,0.517721,
2007-10-05, 02:23:00,VALID,916.407,VALID,0,VALID,100,VALID,0.0169808,VALID,20.1201,VALID,140,VALID,0.773264,
2007-10-05, 02:24:00,VALID,916.393,VALID,0,VALID,100,VALID,0,VALID,20.0944,VALID,140,VALID,0.707386,
2007-10-05, 02:25:00,VALID,916.364,VALID,0,VALID,100,VALID,0,VALID,20.0879,VALID,130,VALID,0.813453,
2007-10-05, 02:26:00,VALID,916.353,VALID,0,VALID,100,VALID,0,VALID,20.0712,VALID,124,VALID,0.867551,
2007-10-05, 02:27:00,VALID,916.337,VALID,0,VALID,100,VALID,0,VALID,20.0515,VALID,124,VALID,0.642401,
2007-10-05, 02:28:00,VALID,916.322,VALID,0,VALID,100,VALID,-0.0339617,VALID,20.042,VALID,105,VALID,0.925465,
2007-10-05, 02:29:00,VALID,916.316,VALID,0,VALID,100,VALID,0,VALID,20.0193,VALID,102,VALID,0.628819,
2007-10-05, 02:30:00,VALID,916.332,VALID,0,VALID,100,VALID,0.0169808,VALID,20.0093,VALID,108,VALID,0.628452,
2007-10-05, 02:31:00,VALID,916.355,VALID,0,VALID,100,VALID,0.0339617,VALID,19.9928,VALID,117,VALID,0.950994,
2007-10-05, 02:32:00,VALID,916.375,VALID,0,VALID,100,VALID,0.0679233,VALID,19.9863,VALID,133,VALID,0.163154,
2007-10-05, 02:33:00,VALID,916.384,VALID,0,VALID,100,VALID,0.0849042,VALID,19.9898,VALID,136,VALID,0.00142045,
2007-10-05, 02:34:00,VALID,916.405,VALID,0,VALID,100,VALID,0.0509425,VALID,19.9863,VALID,130,VALID,0.304688,
2007-10-05, 02:35:00,VALID,916.407,VALID,0,VALID,100,VALID,0.0509425,VALID,19.9801,VALID,118,VALID,0.630814,
2007-10-05, 02:36:00,VALID,916.396,VALID,0,VALID,100,VALID,0,VALID,19.9706,VALID,128,VALID,0.717076,
2007-10-05, 02:37:00,VALID,916.397,VALID,0,VALID,100,VALID,0.0169808,VALID,19.9641,VALID,117,VALID,0.256882,
2007-10-05, 02:38:00,VALID,916.398,VALID,0,VALID,100,VALID,0.0339617,VALID,19.9773,VALID,62,VALID,0.265625,
2007-10-05, 02:39:00,VALID,916.395,VALID,0,VALID,100,VALID,0,VALID,19.9868,VALID,94,VALID,0.425249,
2007-10-05, 02:40:00,VALID,916.388,VALID,0,VALID,100,VALID,0.0339617,VALID,19.9636,VALID,111,VALID,0.321646,
2007-10-05, 02:41:00,VALID,916.388,VALID,0,VALID,100,VALID,0.0169808,VALID,19.9571,VALID,118,VALID,0.173473,
2007-10-05, 02:42:00,VALID,916.39,VALID,0,VALID,100,VALID,0.0339617,VALID,19.9539,VALID,128,VALID,0.594249,
2007-10-05, 02:43:00,VALID,916.399,VALID,0,VALID,100,VALID,0.0679233,VALID,19.9409,VALID,131,VALID,0.295351,
2007-10-05, 02:44:00,VALID,916.421,VALID,0,VALID,100,VALID,0.0169808,VALID,19.9606,VALID,131,VALID,0.00232713,
2007-10-05, 02:45:00,VALID,916.445,VALID,0,VALID,100,VALID,0.0339617,VALID,19.9738,VALID,131,VALID,0,
2007-10-05, 02:46:00,VALID,916.447,VALID,0,VALID,100,VALID,0.0509425,VALID,19.9831,VALID,131,VALID,0,
2007-10-05, 02:47:00,VALID,916.443,VALID,0,VALID,100,VALID,0.0339617,VALID,19.9866,VALID,131,VALID,0.112464,
2007-10-05, 02:48:00,VALID,916.423,VALID,0,VALID,100,VALID,-0.0169808,VALID,19.9833,VALID,135,VALID,0.564453,
2007-10-05, 02:49:00,VALID,916.403,VALID,0,VALID,100,VALID,0.0169808,VALID,19.9738,VALID,143,VALID,0.31577,
2007-10-05, 02:50:00,VALID,916.393,VALID,0,VALID,100,VALID,0.0339617,VALID,19.9898,VALID,140,VALID,0.530048,
2007-10-05, 02:51:00,VALID,916.371,VALID,0,VALID,100,VALID,0.0339617,VALID,19.9766,VALID,142,VALID,0.642485,
2007-10-05, 02:52:00,VALID,916.391,VALID,0,VALID,100,VALID,0,VALID,19.9708,VALID,128,VALID,0.507086,
2007-10-05, 02:53:00,VALID,916.415,VALID,0,VALID,100,VALID,-0.0169808,VALID,19.9719,VALID,127,VALID,0.0461128,
2007-10-05, 02:54:00,VALID,916.429,VALID,0,VALID,100,VALID,-0.0679233,VALID,19.9848,VALID,127,VALID,0.485564,
2007-10-05, 02:55:00,VALID,916.456,VALID,0,VALID,100,VALID,-0.0849042,VALID,19.9684,VALID,127,VALID,0.129084,
2007-10-05, 02:56:00,VALID,916.469,VALID,0,VALID,100,VALID,-0.0679233,VALID,19.9751,VALID,127,VALID,0.00228659,
2007-10-05, 02:57:00,VALID,916.486,VALID,0,VALID,100,VALID,-0.0849042,VALID,19.9881,VALID,127,VALID,0,
2007-10-05, 02:58:00,VALID,916.507,VALID,0,VALID,100,VALID,-0.101885,VALID,19.9913,VALID,127,VALID,0,
2007-10-05, 02:59:00,VALID,916.5,VALID,0,VALID,100,VALID,-0.101885,VALID,20.0011,VALID,127,VALID,0.025,
2007-10-05, 03:00:00,VALID,916.487,VALID,0,VALID,100,VALID,-0.101885,VALID,20.0078,VALID,127,VALID,0.0286458,
2007-10-05, 03:01:00,VALID,916.483,VALID,0,VALID,100,VALID,-0.0339617,VALID,20.0078,VALID,127,VALID,0.281808,
2007-10-05, 03:02:00,VALID,916.476,VALID,0,VALID,100,VALID,-0.101885,VALID,19.9981,VALID,127,VALID,0.0748546,
2007-10-05, 03:03:00,VALID,916.494,VALID,0,VALID,100,VALID,-0.0849042,VALID,20.0238,VALID,127,VALID,0,
2007-10-05, 03:04:00,VALID,916.519,VALID,0,VALID,100,VALID,-0.101885,VALID,20.043,VALID,127,VALID,0,
2007-10-05, 03:05:00,VALID,916.533,VALID,0,VALID,100,VALID,-0.0339617,VALID,20.0495,VALID,127,VALID,0,
2007-10-05, 03:06:00,VALID,916.548,VALID,0,VALID,100,VALID,-0.101885,VALID,20.053,VALID,127,VALID,0,
2007-10-05, 03:07:00,VALID,916.547,VALID,0,VALID,100,VALID,-0.101885,VALID,20.056,VALID,127,VALID,0,
2007-10-05, 03:08:00,VALID,916.542,VALID,0,VALID,100,VALID,-0.0849042,VALID,20.0757,VALID,121,VALID,0.122396,
2007-10-05, 03:09:00,VALID,916.548,VALID,0,VALID,100,VALID,-0.0509425,VALID,20.0887,VALID,106,VALID,0.215511,
2007-10-05, 03:10:00,VALID,916.566,VALID,0,VALID,100,VALID,-0.0849042,VALID,20.1014,VALID,106,VALID,0.0251736,
2007-10-05, 03:11:00,VALID,916.568,VALID,0,VALID,100,VALID,-0.0849042,VALID,20.0987,VALID,106,VALID,0,
2007-10-05, 03:12:00,VALID,916.568,VALID,0,VALID,100,VALID,-0.0849042,VALID,20.076,VALID,106,VALID,0,
2007-10-05, 03:13:00,VALID,916.56,VALID,0,VALID,100,VALID,-0.101885,VALID,20.0692,VALID,106,VALID,0.210379,
2007-10-05, 03:14:00,VALID,916.551,VALID,0,VALID,100,VALID,-0.0849042,VALID,20.0754,VALID,122,VALID,0.413889,
2007-10-05, 03:15:00,VALID,916.565,VALID,0,VALID,100,VALID,-0.0849042,VALID,20.0754,VALID,148,VALID,0.469638,
2007-10-05, 03:16:00,VALID,916.581,VALID,0,VALID,100,VALID,-0.0339617,VALID,20.0587,VALID,150,VALID,0.340216,
2007-10-05, 03:17:00,VALID,916.608,VALID,0,VALID,100,VALID,-0.0679233,VALID,20.0657,VALID,165,VALID,0.646835,
2007-10-05, 03:18:00,VALID,916.601,VALID,0,VALID,100,VALID,-0.0679233,VALID,20.0692,VALID,179,VALID,0.561435,
2007-10-05, 03:19:00,VALID,916.59,VALID,0,VALID,100,VALID,-0.0679233,VALID,20.0592,VALID,165,VALID,0.843378,
2007-10-05, 03:20:00,VALID,916.577,VALID,0,VALID,100,VALID,-0.0509425,VALID,20.0492,VALID,164,VALID,0.956759,
2007-10-05, 03:21:00,VALID,916.555,VALID,0,VALID,100,VALID,-0.0679233,VALID,20.05,VALID,134,VALID,0.833841,
2007-10-05, 03:22:00,VALID,916.54,VALID,0,VALID,100,VALID,-0.0679233,VALID,20.0268,VALID,165,VALID,0.62221,
2007-10-05, 03:23:00,VALID,916.536,VALID,0,VALID,100,VALID,-0.0339617,VALID,20.0205,VALID,156,VALID,0.515447,
2007-10-05, 03:24:00,VALID,916.535,VALID,0,VALID,100,VALID,-0.0679233,VALID,20.014,VALID,156,VALID,0.609766,
2007-10-05, 03:25:00,VALID,916.524,VALID,0,VALID,100,VALID,-0.0679233,VALID,20.0043,VALID,138,VALID,0.543341,
2007-10-05, 03:26:00,VALID,916.533,VALID,0,VALID,100,VALID,-0.0509425,VALID,20.0076,VALID,146,VALID,0.397166,
2007-10-05, 03:27:00,VALID,916.51,VALID,0,VALID,100,VALID,-0.0509425,VALID,19.9911,VALID,140,VALID,1.14023,
2007-10-05, 03:28:00,VALID,916.498,VALID,0,VALID,100,VALID,-0.0679233,VALID,19.9759,VALID,141,VALID,1.15298,
2007-10-05, 03:29:00,VALID,916.481,VALID,0,VALID,100,VALID,-0.0849042,VALID,19.9526,VALID,122,VALID,0.981419,
2007-10-05, 03:30:00,VALID,916.464,VALID,0,VALID,100,VALID,-0.0849042,VALID,19.9424,VALID,86,VALID,0.626953,
2007-10-05, 03:31:00,VALID,916.482,VALID,0,VALID,100,VALID,-0.0849042,VALID,19.9591,VALID,94,VALID,1.07292,
2007-10-05, 03:32:00,VALID,916.48,VALID,0,VALID,100,VALID,-0.0849042,VALID,19.9459,VALID,94,VALID,0.995276,
2007-10-05, 03:33:00,VALID,916.485,VALID,0,VALID,100,VALID,-0.0679233,VALID,19.9199,VALID,99,VALID,1.17321,
2007-10-05, 03:34:00,VALID,916.522,VALID,0,VALID,100,VALID,-0.0169808,VALID,19.9037,VALID,113,VALID,1.19379,
2007-10-05, 03:35:00,VALID,916.523,VALID,0,VALID,100,VALID,-0.0849042,VALID,19.8808,VALID,133,VALID,0.808117,
2007-10-05, 03:36:00,VALID,916.537,VALID,0,VALID,100,VALID,-0.0679233,VALID,19.891,VALID,114,VALID,0.981357,
2007-10-05, 03:37:00,VALID,916.549,VALID,0,VALID,100,VALID,0,VALID,19.8668,VALID,118,VALID,0.828307,
2007-10-05, 03:38:00,VALID,916.562,VALID,0,VALID,100,VALID,0,VALID,19.8568,VALID,112,VALID,1.16832,
2007-10-05, 03:39:00,VALID,916.565,VALID,0,VALID,100,VALID,0,VALID,19.8508,VALID,129,VALID,0.628815,
2007-10-05, 03:40:00,VALID,916.553,VALID,0,VALID,100,VALID,-0.0169808,VALID,19.8341,VALID,101,VALID,1.24941,
2007-10-05, 03:41:00,VALID,916.53,VALID,0,VALID,100,VALID,-0.0339617,VALID,19.8213,VALID,85,VALID,1.12686,
2007-10-05, 03:42:00,VALID,916.493,VALID,0,VALID,100,VALID,0,VALID,19.8184,VALID,104,VALID,1.38891,